RSS Eijerkamp Webshop

Super result from Epernay with prize percentage 74% against 5,919 pigeons 1:4
4, 5, 20, 25, 26, 27, 30 etc against 1,717 pigeons

13/05/2017

Today we flew our first middle distance race of the season from Epernay, a distance of 376 km to our loft. The weather on the race course was variable with some showers and a south west wind.
After the formidable results of the last weeks, we were feeling positive about this weeks race. We had heard from other sections that the race was very irregular. We had two pigeons come together and then had to wait for 5 minutes for the third. They had flown at speeds of more than 100 km/hr., which was in line with the reports we had received earlier. 

The first a hen, was "Gloria" NL16-1253495 a pigeon out of the Joke and Martin Geven lines.
The grandparents are a.o "Super Witpen" and the top hen "Evi" winner of 1st NPO Bourges against 6,518 pigeons.
Earlier "Gloria" had won a.o:

  • 4. Quievrain against 6,814 pigeons
  • 8. Isnes against 1,984 pigeons
  • 19. Ass Zellik against 2,456 pigeons

Number two was a widower "Mister Jack" NL16-1254015 a grandson of "Dion" and "Jackpot".
His father is "Regiano" bred out of "Dion" x the super breeding hen "Kim".
His mother is "Jacquiline" bred out of "Jackpot" x "Caprio 592 Hen" a daughter of "Di Caprio (Dirk van Dijck from Zandhoven)".

The third bird clocked was "Miss Peroni" NL16-1253577 a granddaughter of "Carlos" a super son of "Ché".
Her father is "Special Kain" bred out of "Kain" x "Prima Hertog".
Her mother was bred out of "Carlos" a son of "Ché" x "Candy" a daughter of "Tips"/

Prize Summary

  • Club: Against 560 pigeons 1, 2, 4, 6, 7, 8, 9, 10, 11, 14, 16, 18, 19 etc 99/67 Perc. 68%
  • Area the IJssel: Against 1,717 pigeons 4, 5, 20, 25, 26, 27, 30, 33, 34 etc 98/60 Perc. 61%
  • Regio 4Against 5,919 pigeons: 12, 13, 50, 68, 70, 71, 77, 89 etc. 98/72 Perc. 74%
 
First 85 arrivals from Epernay
Distance: 376.768 kmLiberation time: 09:15Wind direction: ZW
#Band Nr.ClockedVelocityPhoto pigeonEye photoPedigree
1 NL16-1253495 13/05/2017 12:57:56 1,690.0mpm
2 NL16-1254015 13/05/2017 12:57:57 1,689.9mpm
3 NL16-1253577 13/05/2017 13:03:34 1,648.4mpm
4 NL15-1362814 13/05/2017 13:04:19 1,643.0mpm
5 NL15-1364386 13/05/2017 13:04:28 1,641.9mpm
6 NL16-1253582 13/05/2017 13:04:29 1,641.8mpm
7 NL16-1254246 13/05/2017 13:04:44 1,640.0mpm
8 NL16-1254367 13/05/2017 13:05:11 1,636.8mpm
9 NL16-1253409 13/05/2017 13:05:14 1,636.5mpm
10 NL16-1254074 13/05/2017 13:06:22 1,628.4mpm
11 NL14-1603584 13/05/2017 13:06:38 1,626.6mpm
12 NL10-1273014 13/05/2017 13:06:59 1,624.1mpm
13 NL16-1253696 13/05/2017 13:07:00 1,624.0mpm
14 NL16-1253792 13/05/2017 13:07:01 1,623.9mpm
15 NL16-1253914 13/05/2017 13:07:44 1,618.9mpm
16 NL16-1254157 13/05/2017 13:07:57 1,617.4mpm
17 NL16-1253407 13/05/2017 13:09:12 1,608.7mpm
18 NL16-1254425 13/05/2017 13:09:40 1,605.5mpm
19 NL15-1362912 13/05/2017 13:09:42 1,605.3mpm
20 NL16-1254158 13/05/2017 13:09:46 1,604.9mpm
21 NL16-1254249 13/05/2017 13:10:00 1,603.3mpm
22 NL16-1253910 13/05/2017 13:10:13 1,601.8mpm
23 NL16-1253547 13/05/2017 13:10:20 1,601.0mpm
24 NL16-1253598 13/05/2017 13:10:50 1,597.6mpm
25 NL16-1254055 13/05/2017 13:11:11 1,595.2mpm
26 NL16-1254179 13/05/2017 13:11:21 1,594.1mpm
27 NL16-1253565 13/05/2017 13:11:21 1,594.1mpm
28 NL16-1253590 13/05/2017 13:11:22 1,594.0mpm
29 NL14-1603998 13/05/2017 13:12:33 1,586.1mpm
30 NL14-1603311 13/05/2017 13:13:05 1,582.5mpm
31 NL15-1364777 13/05/2017 13:13:46 1,578.0mpm
32 NL14-1603906 13/05/2017 13:13:46 1,578.0mpm
33 NL15-1362538 13/05/2017 13:13:46 1,578.0mpm
34 NL15-1363604 13/05/2017 13:13:47 1,577.9mpm
35 NL16-1253685 13/05/2017 13:13:47 1,577.9mpm
36 NL15-1362830 13/05/2017 13:13:47 1,577.9mpm
37 NL16-1254312 13/05/2017 13:13:50 1,577.5mpm
38 NL16-1253604 13/05/2017 13:13:51 1,577.4mpm
39 NL16-1254076 13/05/2017 13:14:02 1,576.2mpm
40 NL15-1363411 13/05/2017 13:14:09 1,575.4mpm
41 NL15-1363385 13/05/2017 13:15:38 1,565.7mpm
42 NL16-1254302 13/05/2017 13:15:41 1,565.4mpm
43 NL14-1603452 13/05/2017 13:15:49 1,564.5mpm
44 NL16-1254387 13/05/2017 13:16:34 1,559.7mpm
45 NL15-1364905 13/05/2017 13:16:41 1,558.9mpm
46 NL14-1603855 13/05/2017 13:17:56 1,550.9mpm
47 NL16-1254073 13/05/2017 13:18:04 1,550.1mpm
48 NL15-1363744 13/05/2017 13:19:25 1,541.5mpm
49 NL15-1363029 13/05/2017 13:19:26 1,541.4mpm
50 NL15-1362705 13/05/2017 13:20:45 1,533.1mpm
51 NL15-1362753 13/05/2017 13:20:45 1,533.1mpm
52 NL16-1253432 13/05/2017 13:20:55 1,532.1mpm
53 NL15-1362829 13/05/2017 13:20:56 1,532.0mpm
54 NL16-1253560 13/05/2017 13:20:57 1,531.9mpm
55 NL15-1362707 13/05/2017 13:21:06 1,531.0mpm
56 NL16-1254220 13/05/2017 13:21:07 1,530.9mpm
57 NL15-1362811 13/05/2017 13:21:08 1,530.7mpm
58 NL16-1253673 13/05/2017 13:21:18 1,529.7mpm
59 NL16-1254292 13/05/2017 13:21:24 1,529.1mpm
60 NL14-1603443 13/05/2017 13:21:25 1,529.0mpm
61 NL16-1253426 13/05/2017 13:22:38 1,521.5mpm
62 NL15-1363072 13/05/2017 13:22:43 1,521.0mpm
63 NL16-1253729 13/05/2017 13:22:45 1,520.8mpm
64 NL16-1254276 13/05/2017 13:22:47 1,520.6mpm
65 NL16-1254119 13/05/2017 13:22:49 1,520.3mpm
66 NL16-1253596 13/05/2017 13:22:54 1,519.8mpm
67 NL16-1253725 13/05/2017 13:22:56 1,519.6mpm
68 NL16-1253406 13/05/2017 13:24:12 1,511.9mpm
69 NL16-1253389 13/05/2017 13:25:23 1,504.8mpm
70 NL16-1253419 13/05/2017 13:25:25 1,504.6mpm
71 NL16-1254424 13/05/2017 13:25:27 1,504.4mpm
72 NL16-1254194 13/05/2017 13:25:29 1,504.2mpm
73 NL16-1254225 13/05/2017 13:25:31 1,504.0mpm
74 NL16-1254014 13/05/2017 13:25:57 1,501.4mpm
75 NL15-1363263 13/05/2017 13:25:57 1,501.4mpm
76 NL15-1362806 13/05/2017 13:28:19 1,487.3mpm
77 NL16-1254196 13/05/2017 13:28:56 1,483.7mpm
78 B15-6108419 13/05/2017 13:31:17 1,470.1mpm
79 NL15-1362593 13/05/2017 13:31:19 1,469.9mpm
80 NL15-1362841 13/05/2017 13:31:20 1,469.8mpm
81 NL16-1253719 13/05/2017 13:31:53 1,466.7mpm
82 NL15-1363334 13/05/2017 13:35:10 1,448.2mpm
83 NL16-1253506 13/05/2017 13:35:15 1,447.7mpm
84 NL16-1254429 13/05/2017 13:35:16 1,447.6mpm
85 NL16-1254315 13/05/2017 13:35:35 1,445.9mpm
<<< Back
Racing pigeon for sale Dakota
Dakota Hen
USD 815
Honor Sold Honor Sold
Honor 
USD 699
Racing pigeon for sale Sheldon
Sheldon Cock
USD 815
Racing pigeon for sale Bond Boy
Bond Boy Cock
USD 873
Racing pigeon for sale Bayard
Bayard Cock
USD 1,164